Showing default

DSX, 44344

Orbit data source: Space-Track

DSX, 44344 is a payload satellite owned by AFRL/RV (US) that was launched on Tue, 25 Jun 2019 UTC via an FALCON HEAVY launch vehicle from the Air Force Eastern Test Range (AFETR). Payload-class satellites include a variety of spacecraft equipped with specific instruments for various scientific and technological missions. These include communications satellites like Starlink; space stations such as the ISS; scientific satellites like the Hubble; Earth observation satellites from companies like Planet Labs, Umbra, and HawkEye 360; GPS; miniature CubeSats for education and research; and military/defense satellites.

Loading next visibility...
Identifier
44344, 2019-036F
Orbit
Active
Country
Flag of USUS
Related business
Manufacturer
MicrosatSystems
Mission
Operational Defense Technology
Bus & Motor
ESPA, Unknown motor
Mass
668 kg wet, 668 kg dry
Launch date (UTC)
2019-06-25 (7 years ago)
Launch vehicle
FALCON HEAVY
Launch site
Air Force Eastern Test Range (AFETR)
Object type
Payload
Rocket body
Debris
Shape & HBR
Irr + 1 Ant, 27.0 m
Radar Cross Section
11.357 m², Large (>1 m²)

Expand to show TLE details & history
Last TLE update: 1 week ago

TLE from 1 week ago
0 DSX
1 44344U 19036F   26085.01885597 -.00000051  00000-0  00000-0 0  9999
2 44344  42.3213  21.0725 1969121 340.1487  13.1582  4.54376562112016
Epoch: 2026-03-26T00:27Z
TLE epoch observation values (Epoch: 2026-03-26T00:27:09.155Z)
Latitude
-0.00002°
Longitude
-169.19411°
Altitude
6,107.645 km
Speed
6.162 km/s
True Right ascension
01h 24m 16s
True Declination
0° 00' 00"
Sunlit
Object was in daylight at epoch
Visualization orbit readout
Latitude
Unknown
Longitude
Unknown
Altitude
Unknown
Speed
Unknown
Apparent Right ascension
Unknown
Apparent Declination
Unknown
Sunlit
N/A
Visualization observer readout
Local Sidereal Time
04:26:47
Azimuth
Unknown
Elevation
Unknown
Doppler factor
Unknown
Orbital elements
Apogee altitude
12,052.817 km
Perigee altitude
5,988.415 km
Semi-major axis
15,398.753 km
Eccentricity
0.19691
Inclination
42.3213°
RAAN
21.0725°
Arg. of periapsis
340.1487°
True anomaly
19.871°
Mean anomaly
13.1582°
Eccentric anomaly
16.33051°
Mean motion
1.13583 °/min
Orbital period
316.95 mins
BSTAR
0
Loading maneuver chart data...
Computing Atmospheric mass density...
Loading historical data...
Loading historical data...
Loading historical data...
Loading historical data...
Loading historical data...
Loading historical data...
Loading historical data...

Documentation

Showing up to 5 results
|